[[{"header":{"parameterUnit":"m.s-1","parameterCategory":1,"la1":30.2991,"la2":30.254,"lo1":-89.0895,"lo2":-89.0444,"dy":0.0017,"dx":0.0017,"nx":28,"ny":28,"refTime":"2024-02-05T09:00:00:Z","depth":0,"parameterNumber":2,"parameterNumberName":"U-component_of_WINDS"},"data":[0,0,0,0,0,0,0,0,0,0,0,0,0,0,0,0,0,0,0,0,0,0,0,0,0,0,0,0,0,0,0,0,0,0,0,0,0,0,0,0,0,0,0,0,0,0,0,0,0,0,0,0,0,0,0,0,0,0,-0.3878,-0.3878,0,-0.3925,-0.3926,-0.3926,-0.3938,-0.3938,-0.3937,-0.3937,-0.3988,-0.3989,-0.3991,0,0,0,0,0,0,0,0,0,0,0,0,0,-0.3799,-0.38,-0.3877,-0.3878,-0.3879,-0.3925,-0.3926,-0.3926,-0.3938,-0.3938,-0.3937,-0.3937,-0.3987,-0.3989,-0.3991,0,0,0,0,0,0,0,0,0,0,0,0,0,-0.3838,-0.38,-0.3877,-0.389,-0.3892,-0.3925,-0.3926,-0.3926,-0.3938,-0.3938,-0.3937,-0.3937,-0.3986,-0.3989,-0.3991,-0.4016,0,0,-0.3999,-0.4,0,0,0,0,0,0,0,0,-0.3836,-0.3841,-0.3888,-0.3889,-0.3891,-0.3925,-0.3916,-0.3956,-0.3938,-0.392,-0.3937,-0.3936,-0.3967,-0.3971,-0.3981,-0.4018,-0.402,-0.3999,-0.4,-0.4002,-0.4002,0,0,0,0,0,0,0,-0.3833,-0.3839,-0.3896,-0.3888,-0.389,-0.3894,-0.3899,-0.3924,-0.3946,-0.3922,-0.3923,-0.3928,-0.3968,-0.3979,-0.3983,-0.4021,-0.3999,-0.4001,-0.4003,-0.4004,-0.4081,-0.4081,0,0,0,0,0,0,-0.3828,-0.3837,-0.3895,-0.3898,-0.3862,-0.3896,-0.3901,-0.3915,-0.3946,-0.395,-0.3929,-0.3929,-0.3975,-0.398,-0.3984,-0.4015,-0.4002,-0.4004,-0.4005,-0.408,-0.4081,-0.4081,0,0,0,0,0,0,-0.3826,-0.3833,-0.3893,-0.3868,-0.3875,-0.3898,-0.3912,-0.3916,-0.3927,-0.3951,-0.3955,-0.3935,-0.3975,-0.3981,-0.4008,-0.4017,-0.4005,-0.4007,-0.4079,-0.408,-0.4081,-0.4077,0,0,0,0,0,0,-0.3824,-0.3832,-0.3842,-0.3868,-0.3877,-0.3915,-0.3913,-0.3917,-0.3931,-0.3931,-0.3958,-0.3962,-0.3975,-0.4004,-0.401,-0.402,-0.4009,-0.4079,-0.408,-0.4081,-0.4077,-0.4078,-0.4079,0,0,0,0,0,-0.3821,-0.3839,-0.3842,-0.3849,-0.3889,-0.3916,-0.3921,-0.3934,-0.3931,-0.3941,-0.3956,-0.3961,-0.4015,-0.4007,-0.4014,-0.4025,-0.4078,-0.408,-0.4081,-0.4076,-0.4078,-0.4079,0,0,0,0,0,0,-0.3814,-0.3843,-0.3846,-0.3873,-0.3892,-0.3917,-0.393,-0.3935,-0.3956,-0.3956,-0.3972,-0.3978,-0.4004,-0.4017,-0.4007,-0.405,-0.4047,-0.4049,-0.4041,-0.4042,-0.4043,-0.404,-0.4011,0,0,0,0,0,-0.3816,-0.3834,-0.3859,-0.388,-0.3889,-0.3908,-0.392,-0.3929,-0.3949,-0.3957,-0.3975,-0.3995,-0.4016,-0.403,-0.4051,-0.4078,-0.4085,-0.409,-0.4091,-0.4091,-0.4094,-0.4109,-0.4112,-0.4086,-0.4086,-0.4086,0,0,-0.3819,-0.3837,-0.3848,-0.3879,-0.3894,-0.3914,-0.3915,-0.3935,-0.395,-0.3961,-0.3987,-0.4,-0.4024,-0.4051,-0.4064,-0.4063,-0.4102,-0.4093,-0.4094,-0.4096,-0.4111,-0.4114,-0.4116,-0.4087,-0.4086,-0.4086,0,0,-0.3835,-0.3851,-0.387,-0.3885,-0.3909,-0.3921,-0.3926,-0.3951,-0.396,-0.3986,-0.3994,-0.4013,-0.4049,-0.4065,-0.4078,-0.4101,-0.4106,-0.4107,-0.4113,-0.4128,-0.413,-0.4132,-0.414,-0.4143,-0.4109,-0.4109,-0.4109,0,-0.3837,-0.3867,-0.388,-0.39,-0.3914,-0.3923,-0.3943,-0.3957,-0.3987,-0.3996,-0.3994,-0.404,-0.4056,-0.4088,-0.4093,-0.4103,-0.4109,-0.4104,-0.4129,-0.4131,-0.4133,-0.4141,-0.4144,-0.4109,-0.4109,-0.4109,-0.4109,0,-0.3867,-0.3888,-0.3901,-0.3928,-0.3943,-0.3963,-0.398,-0.3993,-0.4001,-0.4013,-0.404,-0.406,-0.4085,-0.4093,-0.4101,-0.4126,-0.4124,-0.4125,-0.4122,-0.4135,-0.4143,-0.4146,-0.4109,-0.4109,-0.4109,-0.4109,0,0,-0.3881,-0.3915,-0.3919,-0.3932,-0.3958,-0.3974,-0.3995,-0.4019,-0.403,-0.405,-0.4068,-0.4098,-0.41,-0.4114,-0.4124,-0.4137,-0.4154,-0.4137,-0.4138,-0.4139,-0.4182,-0.4181,-0.4185,-0.4157,-0.4158,-0.4158,-0.418,0,-0.3901,-0.3938,-0.395,-0.398,-0.4,-0.4009,-0.4027,-0.4045,-0.4057,-0.4076,-0.409,-0.4111,-0.4111,-0.412,-0.4133,-0.4149,-0.4162,-0.4147,-0.4175,-0.4176,-0.4169,-0.4189,-0.4188,-0.4208,-0.4183,-0.4184,-0.4184,0,-0.3929,-0.3948,-0.3981,-0.4004,-0.4013,-0.4029,-0.4051,-0.4069,-0.409,-0.4098,-0.4114,-0.4123,-0.4145,-0.414,-0.4172,-0.4161,-0.4173,-0.4182,-0.4183,-0.4187,-0.4181,-0.4193,-0.4214,-0.4217,-0.4189,-0.4189,-0.4189,0,-0.3936,-0.397,-0.3994,-0.4004,-0.4032,-0.4043,-0.4055,-0.4076,-0.4089,-0.411,-0.4119,-0.4141,-0.4154,-0.4172,-0.4186,-0.4181,-0.4217,-0.4213,-0.4224,-0.4224,-0.4232,-0.4231,-0.4256,-0.4239,-0.4239,-0.4239,-0.4239,0,-0.3957,-0.3976,-0.3997,-0.4012,-0.4034,-0.4048,-0.407,-0.4083,-0.4101,-0.4119,-0.4128,-0.4145,-0.4163,-0.4182,-0.4193,-0.4218,-0.4223,-0.4231,-0.4234,-0.423,-0.4229,-0.4238,-0.4238,-0.424,-0.4239,-0.4239,-0.4239,0,-0.3968,-0.3983,-0.401,-0.4034,-0.404,-0.4056,-0.4077,-0.4091,-0.4104,-0.4126,-0.4132,-0.4152,-0.4175,-0.4191,-0.4221,-0.4229,-0.4255,-0.4258,-0.4248,-0.4249,-0.426,-0.4259,-0.4291,-0.4297,-0.4276,-0.4276,-0.4276,0,-0.3981,-0.3996,-0.4021,-0.4034,-0.4046,-0.4065,-0.4079,-0.4093,-0.4107,-0.4132,-0.4144,-0.4168,-0.4187,-0.4223,-0.4241,-0.4264,-0.4267,-0.4277,-0.4271,-0.4266,-0.4267,-0.4266,-0.4268,-0.4278,-0.4278,-0.4278,-0.4278,0,-0.4001,-0.4008,-0.4027,-0.4048,-0.4064,-0.4082,-0.41,-0.411,-0.4128,-0.4143,-0.4166,-0.4181,-0.4211,-0.4234,-0.4258,-0.4272,-0.4278,-0.428,-0.4284,-0.4281,-0.4274,-0.4278,-0.425,-0.4279,-0.4279,-0.4279,-0.4279,-0.4279,-0.4014,-0.4028,-0.4048,-0.4069,-0.4084,-0.41,-0.4115,-0.4129,-0.4149,-0.4174,-0.4181,-0.4205,-0.4226,-0.4259,-0.4273,-0.4292,-0.4292,-0.4297,-0.4299,-0.43,-0.43,-0.4271,-0.4297,-0.4297,-0.4297,-0.4297,-0.4297,0,-0.4035,-0.4048,-0.4067,-0.4092,-0.4108,-0.4112,-0.4132,-0.4146,-0.4167,-0.4185,-0.4204,-0.4231,-0.4253,-0.4272,-0.4296,-0.4308,-0.4311,-0.4313,-0.4313,-0.4316,-0.4299,-0.4293,-0.431,-0.431,-0.431,-0.431,-0.431,-0.431,-0.4048,-0.4072,-0.408,-0.4112,-0.4125,-0.4148,-0.4159,-0.4175,-0.4189,-0.4218,-0.4237,-0.4249,-0.4268,-0.4293,-0.4313,-0.4319,-0.4327,-0.4328,-0.4334,-0.4318,-0.4317,-0.4315,-0.431,-0.433,-0.433,-0.4349,-0.4349,-0.435]},{"header":{"parameterUnit":"m.s-1","parameterCategory":1,"la1":30.2991,"la2":30.254,"lo1":-89.0895,"lo2":-89.0444,"dy":0.0017,"dx":0.0017,"nx":28,"ny":28,"refTime":"2024-02-05T09:00:00:Z","depth":0,"parameterNumber":3,"parameterNumberName":"V-component_of_WINDS"},"data":[0,0,0,0,0,0,0,0,0,0,0,0,0,0,0,0,0,0,0,0,0,0,0,0,0,0,0,0,0,0,0,0,0,0,0,0,0,0,0,0,0,0,0,0,0,0,0,0,0,0,0,0,0,0,0,0,0,0,-2.9293,-2.9294,0,-2.9324,-2.9324,-2.9324,-2.9288,-2.9286,-2.9285,-2.9284,-2.9312,-2.9314,-2.9316,0,0,0,0,0,0,0,0,0,0,0,0,0,-2.9201,-2.9203,-2.9293,-2.9294,-2.9294,-2.9324,-2.9324,-2.9325,-2.9288,-2.9286,-2.9285,-2.9283,-2.9311,-2.9314,-2.9316,0,0,0,0,0,0,0,0,0,0,0,0,0,-2.9237,-2.9203,-2.9293,-2.9279,-2.9279,-2.9324,-2.9324,-2.9325,-2.9288,-2.9286,-2.9284,-2.9282,-2.931,-2.9313,-2.9316,-2.9376,0,0,-2.9326,-2.9327,0,0,0,0,0,0,0,0,-2.9235,-2.924,-2.9281,-2.928,-2.928,-2.93,-2.9302,-2.9342,-2.9289,-2.9284,-2.9284,-2.9281,-2.9309,-2.9312,-2.9322,-2.9377,-2.9378,-2.9326,-2.9328,-2.9329,-2.933,0,0,0,0,0,0,0,-2.9232,-2.9239,-2.9305,-2.9282,-2.9281,-2.9271,-2.9274,-2.9309,-2.9308,-2.9285,-2.9282,-2.9286,-2.9308,-2.932,-2.9323,-2.9378,-2.9326,-2.9328,-2.933,-2.9331,-2.9483,-2.9486,0,0,0,0,0,0,-2.9232,-2.9237,-2.9304,-2.9306,-2.9252,-2.9274,-2.9277,-2.9295,-2.9307,-2.9307,-2.9288,-2.9285,-2.9315,-2.9319,-2.9324,-2.9394,-2.9329,-2.9332,-2.9333,-2.9481,-2.9484,-2.9486,0,0,0,0,0,0,-2.923,-2.9238,-2.9303,-2.9271,-2.9278,-2.9278,-2.9298,-2.9297,-2.9308,-2.931,-2.9309,-2.93,-2.9314,-2.9319,-2.9363,-2.9395,-2.9333,-2.9336,-2.9479,-2.9482,-2.9485,-2.9535,0,0,0,0,0,0,-2.9228,-2.9238,-2.9261,-2.9272,-2.928,-2.9343,-2.93,-2.9299,-2.9314,-2.9309,-2.9321,-2.9321,-2.9313,-2.9359,-2.9366,-2.9398,-2.9338,-2.9476,-2.948,-2.9484,-2.9531,-2.954,-2.9548,0,0,0,0,0,-2.9224,-2.9273,-2.9262,-2.9271,-2.9309,-2.9345,-2.935,-2.9341,-2.9316,-2.9339,-2.9341,-2.932,-2.939,-2.9364,-2.9372,-2.9404,-2.9474,-2.9479,-2.9484,-2.9527,-2.9538,-2.9548,0,0,0,0,0,0,-2.9265,-2.9274,-2.9262,-2.9316,-2.933,-2.9339,-2.9367,-2.9352,-2.9373,-2.9368,-2.9354,-2.9357,-2.9404,-2.9408,-2.9379,-2.9463,-2.9428,-2.9435,-2.9458,-2.9469,-2.9477,-2.9475,-2.9341,0,0,0,0,0,-2.928,-2.9309,-2.9315,-2.9362,-2.937,-2.9368,-2.9383,-2.9375,-2.9388,-2.9394,-2.9398,-2.9411,-2.9436,-2.9452,-2.9475,-2.9531,-2.9533,-2.9558,-2.9566,-2.9573,-2.9579,-2.961,-2.9621,-2.9503,-2.9503,-2.9503,0,0,-2.9311,-2.932,-2.9339,-2.9371,-2.938,-2.941,-2.9373,-2.9405,-2.9427,-2.9398,-2.944,-2.9444,-2.9458,-2.9508,-2.9531,-2.9513,-2.9612,-2.958,-2.9585,-2.9587,-2.9616,-2.9627,-2.9637,-2.9506,-2.9506,-2.9505,0,0,-2.9384,-2.9394,-2.9434,-2.9445,-2.9461,-2.946,-2.9469,-2.9481,-2.9482,-2.9525,-2.9504,-2.9529,-2.9572,-2.9583,-2.9594,-2.9672,-2.9654,-2.968,-2.9724,-2.9753,-2.9763,-2.9771,-2.9799,-2.9809,-2.9686,-2.9686,-2.9686,0,-2.9421,-2.9466,-2.9456,-2.9492,-2.9506,-2.9482,-2.9523,-2.9533,-2.9556,-2.9566,-2.9546,-2.9601,-2.9608,-2.9661,-2.968,-2.969,-2.97,-2.9678,-2.9762,-2.977,-2.9778,-2.9805,-2.9815,-2.9689,-2.9688,-2.9688,-2.9688,0,-2.9511,-2.9542,-2.9573,-2.9596,-2.9614,-2.9652,-2.9647,-2.9666,-2.9657,-2.9657,-2.97,-2.9709,-2.9733,-2.9745,-2.9735,-2.9797,-2.9786,-2.9765,-2.9729,-2.9792,-2.9817,-2.9827,-2.9693,-2.9692,-2.9691,-2.969,0,0,-2.9609,-2.9628,-2.9639,-2.965,-2.9666,-2.969,-2.9726,-2.9752,-2.9768,-2.9784,-2.9814,-2.9852,-2.9833,-2.9846,-2.9837,-2.9863,-2.9925,-2.9839,-2.9839,-2.9855,-2.9993,-3.001,-3.0021,-2.9913,-2.9915,-2.9917,-2.9992,0,-2.9682,-2.9746,-2.9739,-2.98,-2.9829,-2.9808,-2.9839,-2.9852,-2.9854,-2.9878,-2.9878,-2.9906,-2.9878,-2.9886,-2.9911,-2.9912,-2.9953,-2.9907,-2.9941,-2.9942,-2.9938,-3.0034,-3.0051,-3.0122,-3.0002,-3.0004,-3.0005,0,-2.9776,-2.9797,-2.9862,-2.9874,-2.9886,-2.9915,-2.9938,-2.9962,-2.9976,-2.9975,-2.999,-2.9977,-3.0013,-2.9977,-3.0026,-2.9995,-3.0009,-3.0012,-3.0014,-3.0017,-2.9977,-3.004,-3.0145,-3.0155,-3.002,-3.0019,-3.0018,0,-2.9842,-2.9886,-2.9931,-2.994,-2.9956,-2.9977,-2.9985,-2.9997,-3.0013,-3.0033,-3.0043,-3.0066,-3.0079,-3.0097,-3.009,-3.0065,-3.0141,-3.0104,-3.0141,-3.0141,-3.0157,-3.0157,-3.0266,-3.0166,-3.0166,-3.0166,-3.0165,0,-2.9924,-2.9964,-2.9961,-2.9988,-3.0032,-3.0024,-3.0068,-3.0072,-3.0084,-3.0111,-3.0093,-3.0119,-3.0109,-3.0134,-3.0129,-3.017,-3.0176,-3.0176,-3.0174,-3.0178,-3.0178,-3.0187,-3.0181,-3.0168,-3.0168,-3.0167,-3.0167,0,-3.0005,-3.0004,-3.0051,-3.0063,-3.0067,-3.0099,-3.0109,-3.0134,-3.0134,-3.0169,-3.0177,-3.0177,-3.0206,-3.0201,-3.0232,-3.0229,-3.0281,-3.0273,-3.0277,-3.0275,-3.0312,-3.0309,-3.0431,-3.0446,-3.0336,-3.0337,-3.0338,0,-3.0058,-3.0088,-3.0104,-3.0122,-3.0131,-3.016,-3.0176,-3.0169,-3.0187,-3.0206,-3.0229,-3.0257,-3.0278,-3.0325,-3.0327,-3.0351,-3.0344,-3.0385,-3.0347,-3.035,-3.0345,-3.0343,-3.0346,-3.0392,-3.0394,-3.0395,-3.0395,0,-3.0152,-3.015,-3.0175,-3.0201,-3.0222,-3.0241,-3.0258,-3.0274,-3.0268,-3.0289,-3.0319,-3.0336,-3.0368,-3.0396,-3.0419,-3.0425,-3.0409,-3.0407,-3.0417,-3.0421,-3.0422,-3.0423,-3.0298,-3.0405,-3.0404,-3.0403,-3.0402,-3.0402,-3.022,-3.0247,-3.0263,-3.0291,-3.0304,-3.0321,-3.0346,-3.035,-3.0375,-3.0403,-3.0396,-3.043,-3.0444,-3.0473,-3.0482,-3.0508,-3.0493,-3.0507,-3.051,-3.0514,-3.0519,-3.0418,-3.0512,-3.0512,-3.0511,-3.0511,-3.0511,0,-3.0314,-3.0323,-3.035,-3.0376,-3.0399,-3.0383,-3.0402,-3.0422,-3.0452,-3.0467,-3.0489,-3.0524,-3.055,-3.0555,-3.058,-3.06,-3.0594,-3.0607,-3.0606,-3.0608,-3.0531,-3.052,-3.0612,-3.0612,-3.0612,-3.0612,-3.0612,-3.0612,-3.0365,-3.041,-3.041,-3.0461,-3.0469,-3.0504,-3.0516,-3.0531,-3.0543,-3.0583,-3.0606,-3.0609,-3.062,-3.0646,-3.067,-3.067,-3.0681,-3.0697,-3.0695,-3.0623,-3.0613,-3.0603,-3.0593,-3.0699,-3.0699,-3.077,-3.077,-3.0771]}]]